Flag for El Salvador Weather past 2 weeks in Santa Ana, El Salvador

Now
73 °F

Clear.


Feels Like: 74 °F
Forecast: 60 / 90 °F
Wind: 8 mph from South

Location: San Salvador / Ilopango

Current Time: Feb 1, 2015 at 8:58:50 PM

Latest Report: Feb 1, 2015 at 7:50 PM


Visibility: 10 mi

Pressure: 29.92 "Hg

Humidity: 78%

Dew point: 66 °F

Location of Santa AnaLocation

Historic Weather in Santa Ana — Graph

°F

Santa Ana temperature yesterday

Maximum temperature yesterday: 90 °F (at 12:50 PM)
Minimum temperature yesterday: 63 °F (at 5:50 AM)
Average temperature yesterday: 76 °F

Past Weeks' High & Low Weather Summary

 TemperatureHumidityPressure
High91 °F (Feb 1, 1:50 PM)100% (Jan 27, 8:50 PM)30.18 "Hg (Jan 27, 8:50 PM)
Low61 °F (Jan 28, 6:50 AM)36% (Jan 31, 12:50 PM)29.86 "Hg (Jan 28, 9:50 AM)
Average75 °F67%30.02 "Hg
* Reported Jan 17 7:50 PM — Feb 1 7:50 PM, Santa Ana, Weather by CustomWeather, © 2014

Note: Actual official high and low records may vary slightly from our data, if they occured in-between our weather recording intervals... More about our weather records

Advertising

Santa Ana weather history for previous 24 hours

 ConditionsComfort  
Time TempWeatherWind HumidityBarometerVisibility
7:50 PM
Feb 1
73 °FClear.8 mph78%29.92 "Hg10 mi
6:50 PM73 °FClear.8 mph83%29.92 "Hg10 mi
5:50 PM79 °FSunny.7 mph70%29.92 "Hg10 mi
4:50 PM81 °FSunny.14 mph66%29.95 "Hg10 mi
3:50 PM86 °FSunny.14 mph59%29.95 "Hg10 mi
2:50 PM90 °FSunny.7 mph55%29.95 "Hg10 mi
1:50 PM91 °FSunny.6 mph49%29.95 "Hg10 mi
12:50 PM90 °FSunny.5 mph52%29.98 "Hg10 mi
11:50 AM86 °FSunny.7 mph55%30.01 "Hg10 mi
10:50 AM82 °FSunny.6 mph58%30.04 "Hg10 mi
9:50 AM77 °FSunny.7 mph69%30.04 "Hg10 mi
8:50 AM72 °FSunny.9 mph78%30.04 "Hg10 mi
7:50 AM66 °FSunny.7 mph83%29.98 "Hg10 mi
6:50 AM63 °FSunny.3 mph88%30.01 "Hg10 mi
5:50 AM64 °FClear.3 mph88%29.98 "Hg10 mi
11:50 PM
Jan 31
68 °FClear.3 mph78%30.01 "Hg10 mi
10:50 PM68 °FClear.5 mph78%30.01 "Hg10 mi
9:50 PM70 °FClear.5 mph73%30.01 "Hg10 mi
8:50 PM72 °FClear.6 mph69%30.01 "Hg10 mi
Weather by CustomWeather, © 2014

See weather overviewHow to use our weather pages